Location: Sedan
(39.2354°N, 78.5718°W)
Time: 22:47:50
(UTC+00:00)

ISS - Pass Details

Date: 06 December 2021
Orbit: 413 x 422 km, 51.6° (Epoch: 25 January)

Event Time Altitude Azimuth Distance (km) Brightness Sun altitude
Rises 23:03:59 0° 310° (NW) 2,383 0.5 -13.8°
Reaches altitude 10° 23:06:06 10° 313° (NW) 1,513 -0.5 -14.2°
Maximum altitude 23:09:29 65° 36° (NE) 467 -3.8 -14.8°
Enters shadow 23:11:14 26° 112° (ESE) 878 -2.6 -15.1°
